WE3WEE Weather Reports


time (UTC)temp
C
wind
direction
speed
KPH
gust
KPH
rain 1hr
cm
rain 24hr
cm
rain mn
cm
humidity
%
barometer
mb
20260504100437 1 313 0.0 0.0 0.00 0.00 0.00 89 1012.8
20260504081830 3 313 0.0 0.0 0.00 0.00 0.00 85 1013.8
20260504081326 3 313 0.0 0.0 0.00 0.00 0.00 82 1013.8
20260504080822 4 333 0.0 0.0 0.00 0.00 0.00 78 1013.8
20260504080320 4 333 0.0 0.0 0.00 0.00 0.00 77 1013.8
20260504070247 5 333 0.0 0.0 0.00 0.00 0.00 74 1013.8
20260504060202 3 292 0.0 0.0 0.00 0.00 0.00 80 1012.8
20260504050630 3 218 0.0 0.0 0.00 0.00 0.00 83 1013.8
20260504050127 3 218 0.0 0.0 0.00 0.00 0.00 81 1012.8
20260504045623 3 218 0.0 0.0 0.00 0.00 0.00 81 1012.8
20260504045118 3 218 0.0 0.0 0.00 0.00 0.00 81 1012.8
20260504044617 3 218 0.0 0.0 0.00 0.00 0.00 81 1012.8
20260504044113 3 218 0.0 0.0 0.00 0.00 0.00 82 1012.8
20260504043610 3 218 0.0 0.0 0.00 0.00 0.00 82 1012.8
20260504043108 4 218 0.0 0.0 0.00 0.00 0.00 81 1012.8
20260504042605 4 218 0.0 0.0 0.00 0.00 0.00 80 1013.8
20260504042101 4 218 0.0 0.0 0.00 0.00 0.00 80 1013.8
20260504041557 4 218 0.0 0.0 0.00 0.00 0.00 79 1013.8
20260504041054 4 218 0.0 0.0 0.00 0.00 0.00 78 1012.8
20260504040551 4 218 0.0 0.0 0.00 0.00 0.00 78 1012.8
20260504040047 4 218 0.0 0.0 0.00 0.00 0.00 77 1012.8
20260504035544 5 218 0.0 0.0 0.00 0.00 0.00 77 1012.8
20260504035041 5 218 0.0 0.0 0.00 0.00 0.00 77 1012.8
20260504034539 5 218 0.0 0.0 0.00 0.00 0.00 75 1012.8
20260504034035 5 218 0.0 0.0 0.00 0.00 0.00 74 1012.8
20260504033533 5 218 0.0 0.0 0.00 0.00 0.00 73 1012.8
20260504033030 6 218 0.0 0.0 0.00 0.00 0.00 72 1012.8
20260504032527 6 218 0.0 0.0 0.00 0.00 0.00 71 1012.8
20260504032024 6 0 0.0 0.0 0.00 0.00 0.00 69 1012.8
20260504031521 6 218 0.0 0.0 0.00 0.00 0.00 67 1012.8
20260504031017 7 218 0.0 0.0 0.00 0.00 0.00 67 1012.8
20260504030515 7 218 0.0 0.0 0.00 0.00 0.00 65 1012.8
20260504030011 7 218 0.0 0.0 0.00 0.00 0.00 64 1012.8
20260504025508 7 218 0.0 0.0 0.00 0.00 0.00 64 1012.8
20260504025005 7 218 0.0 0.0 0.00 0.00 0.00 61 1012.8
20260504024502 8 218 0.0 0.0 0.00 0.00 0.00 61 1012.8
20260504023959 8 218 0.0 0.0 0.00 0.00 0.00 61 1012.8
20260504023455 8 218 0.0 0.0 0.00 0.00 0.00 61 1012.8
20260504022950 8 218 0.0 0.0 0.00 0.00 0.00 61 1012.8
20260504022447 8 240 0.0 0.0 0.00 0.00 0.00 61 1012.8
20260504021944 8 251 0.0 0.0 0.00 0.00 0.00 60 1012.8
20260504021441 8 251 0.0 0.0 0.00 0.00 0.00 60 1012.8
20260504020938 8 251 0.0 0.0 0.00 0.00 0.00 60 1012.8
20260504020435 8 251 0.0 0.0 0.00 0.00 0.00 60 1012.8
20260504015931 8 251 0.0 0.0 0.00 0.00 0.00 59 1012.8
20260504015427 8 293 0.0 0.0 0.00 0.00 0.00 59 1012.8
20260504014924 8 293 0.0 0.0 0.00 0.00 0.00 59 1012.8
20260504014420 8 293 0.0 0.0 0.00 0.00 0.00 58 1012.8
20260504013917 8 293 0.0 0.0 0.00 0.00 0.00 58 1012.8
20260504013416 9 259 0.0 0.0 0.00 0.00 0.00 59 1012.8
20260504012911 9 259 0.0 0.0 0.00 0.00 0.00 56 1012.8
20260504012409 9 223 0.0 0.0 0.00 0.00 0.00 57 1012.8
20260504011906 9 223 0.0 0.0 0.00 0.00 0.00 58 1012.8
20260504011403 9 221 0.0 0.0 0.00 0.00 0.00 57 1012.8
20260504010859 9 214 0.0 0.0 0.00 0.00 0.00 56 1012.8
20260504010355 9 216 0.0 0.0 0.00 0.00 0.00 55 1012.8
20260504005851 8 291 0.0 0.0 0.00 0.00 0.00 55 1012.8
20260504005348 8 248 0.0 0.0 0.00 0.00 0.00 57 1012.8
20260504004846 8 250 0.0 0.0 0.00 0.00 0.00 58 1012.8
20260504004343 9 250 0.0 0.0 0.00 0.00 0.00 57 1012.8
20260504003840 10 250 0.0 0.0 0.00 0.00 0.00 57 1011.7
20260504003337 10 250 0.0 0.0 0.00 0.00 0.00 53 1011.7
20260504002833 10 250 0.0 0.0 0.00 0.00 0.00 51 1011.7
20260504002330 10 250 0.0 0.0 0.00 0.00 0.00 51 1011.7
20260504001828 10 250 0.0 0.0 0.00 0.00 0.00 52 1011.7
20260504001325 10 250 0.0 0.0 0.00 0.00 0.00 52 1011.7
20260504000822 11 250 0.0 0.0 0.00 0.00 0.00 51 1011.7
20260504000319 11 244 0.0 0.0 0.00 0.00 0.00 51 1011.7
20260503235816 11 244 0.0 0.0 0.00 0.00 0.00 49 1011.7
20260503235314 12 242 0.0 0.0 0.00 0.00 0.00 48 1011.7
20260503234811 12 242 0.0 0.0 0.00 0.00 0.00 47 1011.7
20260503234309 12 248 0.0 0.0 0.00 0.00 0.00 44 1011.7
20260503233806 12 240 0.0 0.0 0.00 0.00 0.00 46 1011.7
20260503233302 12 239 0.0 0.0 0.00 0.00 0.00 45 1011.7
20260503232758 12 213 0.0 0.0 0.00 0.00 0.00 43 1011.7
20260503232256 13 303 0.0 0.0 0.00 0.00 0.00 46 1011.7
20260503231753 13 261 0.0 0.0 0.00 0.00 0.00 42 1011.7
20260503231245 13 260 0.0 0.0 0.00 0.00 0.00 42 1011.7
20260503230741 13 292 0.0 0.0 0.00 0.00 0.00 41 1011.7
20260503230238 13 259 0.0 0.0 0.00 0.00 0.00 43 1011.7
20260503225736 13 239 0.0 0.0 0.00 0.00 0.00 44 1011.7
20260503225236 13 251 0.0 0.0 0.00 0.00 0.00 41 1011.7
20260503224733 13 198 0.0 0.0 0.00 0.00 0.00 40 1011.7
20260503224231 13 21 0.0 0.0 0.00 0.00 0.00 43 1011.7
20260503223728 13 181 0.0 0.0 0.00 0.00 0.00 42 1011.7
20260503223226 13 242 11.3 17.7 0.00 0.00 0.00 42 1011.7
20260503222721 13 226 0.0 0.0 0.00 0.00 0.00 42 1011.7
20260503222220 13 241 0.0 0.0 0.00 0.00 0.00 44 1011.7
20260503221718 13 132 0.0 0.0 0.00 0.00 0.00 45 1011.7
20260503221215 13 225 0.0 0.0 0.00 0.00 0.00 42 1011.7
20260503220711 13 317 1.6 12.9 0.00 0.00 0.00 41 1011.7
20260503220209 13 238 0.0 0.0 0.00 0.00 0.00 43 1011.7
20260503215705 13 240 0.0 0.0 0.00 0.00 0.00 41 1011.7
20260503215202 13 260 0.0 0.0 0.00 0.00 0.00 43 1011.7
20260503214700 14 286 0.0 0.0 0.00 0.00 0.00 41 1011.7
20260503214155 13 347 0.0 0.0 0.00 0.00 0.00 40 1011.7
20260503213650 14 330 0.0 0.0 0.00 0.00 0.00 41 1010.6
20260503213146 14 314 0.0 0.0 0.00 0.00 0.00 40 1010.6
20260503212643 14 226 0.0 0.0 0.00 0.00 0.00 39 1010.6
20260503212141 14 305 0.0 0.0 0.00 0.00 0.00 38 1010.6
20260503211638 14 27 0.0 0.0 0.00 0.00 0.00 40 1011.7
20260503211133 14 332 0.0 0.0 0.00 0.00 0.00 41 1011.7
20260503210630 13 209 0.0 0.0 0.00 0.00 0.00 41 1011.7
20260503210127 13 250 0.0 0.0 0.00 0.00 0.00 43 1010.6
20260503205623 13 51 0.0 0.0 0.00 0.00 0.00 39 1010.6
20260503205119 13 258 0.0 0.0 0.00 0.00 0.00 41 1010.6
20260503204616 13 0 0.0 0.0 0.00 0.00 0.00 38 1011.7
20260503204114 14 252 0.0 0.0 0.00 0.00 0.00 41 1011.7
20260503203610 14 252 0.0 0.0 0.00 0.00 0.00 41 1011.7
20260503203108 15 31 0.0 0.0 0.00 0.00 0.00 36 1011.7
20260503202605 14 329 0.0 0.0 0.00 0.00 0.00 38 1011.7
20260503202103 13 199 0.0 0.0 0.00 0.00 0.00 40 1011.7
20260503201601 13 223 0.0 3.2 0.00 0.00 0.00 40 1011.7
20260503201058 13 235 0.0 0.0 0.00 0.00 0.00 40 1011.7
20260503200554 13 225 0.0 0.0 0.00 0.00 0.00 42 1011.7
20260503200051 13 246 0.0 0.0 0.00 0.00 0.00 41 1011.7
20260503195548 14 202 0.0 0.0 0.00 0.00 0.00 38 1011.7
20260503195044 15 143 0.0 0.0 0.00 0.00 0.00 38 1011.7
20260503194542 15 263 0.0 0.0 0.00 0.00 0.00 41 1011.7
20260503194041 14 226 0.0 0.0 0.00 0.00 0.00 38 1011.7
20260503193539 14 148 0.0 0.0 0.00 0.00 0.00 39 1011.7
20260503193033 14 248 0.0 0.0 0.00 0.00 0.00 35 1011.7
20260503192530 14 196 0.0 0.0 0.00 0.00 0.00 35 1011.7
20260503192026 14 357 0.0 0.0 0.00 0.00 0.00 35 1011.7
20260503191523 15 36 0.0 0.0 0.00 0.00 0.00 34 1011.7
20260503191020 15 251 0.0 0.0 0.00 0.00 0.00 35 1011.7
20260503190516 14 346 0.0 0.0 0.00 0.00 0.00 36 1011.7
20260503190014 14 251 0.0 0.0 0.00 0.00 0.00 35 1011.7
20260503185509 14 26 0.0 0.0 0.00 0.00 0.00 34 1011.7
20260503185004 14 262 0.0 0.0 0.00 0.00 0.00 37 1011.7
20260503184501 14 158 0.0 0.0 0.00 0.00 0.00 40 1012.8
20260503183957 13 227 0.0 0.0 0.00 0.00 0.00 43 1012.8
20260503183454 13 9 0.0 0.0 0.00 0.00 0.00 39 1012.8
20260503182950 13 316 0.0 0.0 0.00 0.00 0.00 39 1012.8
20260503182450 13 293 0.0 0.0 0.00 0.00 0.00 37 1012.8
20260503181947 13 104 0.0 0.0 0.00 0.00 0.00 35 1012.8
20260503181444 13 329 0.0 0.0 0.00 0.00 0.00 37 1012.8
20260503180939 13 292 0.0 0.0 0.00 0.00 0.00 39 1012.8
20260503180438 13 265 0.0 0.0 0.00 0.00 0.00 38 1012.8
20260503175934 12 223 0.0 0.0 0.00 0.00 0.00 38 1012.8
20260503175433 12 204 0.0 0.0 0.00 0.00 0.00 45 1012.8
20260503174928 11 196 0.0 0.0 0.00 0.00 0.00 44 1012.8
20260503174427 12 157 0.0 0.0 0.00 0.00 0.00 40 1012.8
20260503173926 11 19 0.0 0.0 0.00 0.00 0.00 44 1012.8
20260503173423 11 259 0.0 0.0 0.00 0.00 0.00 40 1012.8
20260503172920 11 340 0.0 0.0 0.00 0.00 0.00 43 1012.8
20260503172417 11 265 0.0 0.0 0.00 0.00 0.00 43 1012.8
20260503171913 11 303 0.0 0.0 0.00 0.00 0.00 43 1012.8
20260503171410 11 21 0.0 0.0 0.00 0.00 0.00 40 1013.8
20260503170908 12 315 0.0 0.0 0.00 0.00 0.00 41 1013.8
20260503170404 11 239 0.0 0.0 0.00 0.00 0.00 39 1013.8
20260503150756 9 340 0.0 0.0 0.00 0.00 0.00 44 1013.8
20260503150252 9 239 0.0 0.0 0.00 0.00 0.00 43 1013.8
20260503140217 8 326 0.0 0.0 0.00 0.00 0.00 47 1013.8
20260503131146 7 344 3.2 12.9 0.00 0.00 0.00 57 1014.8
20260503130643 6 307 0.0 14.5 0.00 0.00 0.00 57 1014.8
20260503130141 6 346 0.0 0.0 0.00 0.00 0.00 57 1014.8
20260503120106 5 225 0.0 0.0 0.00 0.00 0.00 73 1014.8
20260503110533 2 288 0.0 0.0 0.00 0.00 0.00 84 1013.8